Location: Unspecified
(45.3999°N, 88.1269°W)
Time: 03:19:34
(UTC-05:00)

Resurs 1-4 Rocket - Visible Passes

Search period start: 26 September 2018 00:00
Search period end: 06 October 2018 00:00
Orbit: 799 x 814 km, 98.5° (Epoch: 24 September)

Date Brightness Start Highest point End Pass type
(mag) Time Alt. Az. Time Alt. Az. Time Alt. Az.
26 Sep 3.9 02:52:39 10° NNE 02:54:58 27° NNE 02:54:58 27° NNE visible
26 Sep 4.0 04:33:57 10° NNW 04:36:02 15° NW 04:36:02 15° NW visible
27 Sep 4.3 02:28:11 10° NNE 02:29:58 21° NNE 02:29:58 21° NNE visible
27 Sep 3.8 04:08:37 10° N 04:11:03 21° NNW 04:11:03 21° NNW visible
28 Sep 4.7 02:03:56 10° NNE 02:04:58 15° NE 02:04:58 15° NE visible
28 Sep 3.7 03:43:37 10° N 03:46:03 25° NNW 03:46:03 25° NNW visible
29 Sep 3.8 03:18:48 10° N 03:21:04 26° N 03:21:04 26° N visible
30 Sep 4.1 02:54:09 10° NNE 02:56:04 23° NNE 02:56:04 23° NNE visible
30 Sep 4.1 04:35:32 10° NNW 04:37:09 14° NW 04:37:09 14° NW visible
01 Oct 4.5 02:29:40 10° NNE 02:31:04 18° NNE 02:31:04 18° NNE visible
01 Oct 4.0 04:10:11 10° N 04:12:09 19° NNW 04:12:09 19° NNW visible
02 Oct 4.9 02:05:24 10° NNE 02:06:06 13° NE 02:06:06 13° NE visible
02 Oct 3.9 03:45:09 10° N 03:47:10 22° NNW 03:47:10 22° NNW visible
03 Oct 4.1 03:20:20 10° N 03:22:10 22° N 03:22:10 22° N visible
04 Oct 4.3 02:55:40 10° NNE 02:57:11 20° NNE 02:57:11 20° NNE visible
04 Oct 4.2 04:37:06 10° NNW 04:38:15 13° NNW 04:38:15 13° NNW visible
05 Oct 4.7 02:31:10 10° NNE 02:32:12 16° NNE 02:32:12 16° NNE visible
05 Oct 4.1 04:11:43 10° N 04:13:15 17° NNW 04:13:15 17° NNW visible
